Location: Hilton Head Island
(32.2163°N, 80.7526°W)
Time: 18:14:59
(UTC-04:00)

A-11 Canister half - Pass Details

Date: 21 February 2026
Orbit: 1525 x 1683 km, 47.3° (Epoch: 10 March)

Event Time Altitude Azimuth Distance (km) Brightness Sun altitude
Rises 21:04:49 0° 307° (NW) 4,677 12.3 -36.6°
Reaches altitude 10° 21:07:58 10° 312° (NW) 3,691 11.6 -37.3°
Enters shadow 21:15:34 51° 359° (N) 1,865 9.3 -38.8°
